When you browse on this site, cookies collect data to enhance your experience and personalize the content and advertising you see.
Visit our Privacy Policy to learn more. By continuing to use the site, you agree to this use of cookies and data.
  • In Hungary
  • List of Countries
  • For 7 days
  • Water Temperature
  • Weather Map
  • News
  • Weather Widgets
  • user-avatar
    Login

    Hourly Weather Semenkino

    Today, 13 October, Sunday

    Time Temperature Precipitation Wind Pressure Humidity
    00:00 +7°C° 0 mm 2 mps 744 mmHg 96%
    01:00 +7°C° 0 mm 2 mps 743 mmHg 96%
    02:00 +7°C° 0 mm 2 mps 743 mmHg 96%
    03:00 +7°C° 0 mm 2 mps 743 mmHg 95%
    04:00 +7°C° 0 mm 2 mps 743 mmHg 92%
    05:00 +6°C° 0 mm 2 mps 743 mmHg 92%
    06:00 +6°C° 0 mm 2 mps 743 mmHg 92%
    07:00 +6°C° 0 mm 2 mps 742 mmHg 92%
    08:00 +7°C° 0 mm 3 mps 742 mmHg 87%
    09:00 +7°C° 0 mm 5 mps 741 mmHg 83%
    10:00 +8°C° 0 mm 6 mps 741 mmHg 78%
    11:00 +8°C° 0 mm 6 mps 741 mmHg 74%
    12:00 +9°C° 0 mm 7 mps 740 mmHg 70%
    13:00 +10°C° 0 mm 7 mps 740 mmHg 65%
    14:00 +9°C° 0.4 mm 7 mps 739 mmHg 70%
    15:00 +9°C° 0.4 mm 7 mps 738 mmHg 74%
    16:00 +7°C° 0 mm 8 mps 738 mmHg 79%
    17:00 +7°C° 1 mm 8 mps 737 mmHg 82%
    18:00 +7°C° 1 mm 8 mps 737 mmHg 85%
    19:00 +7°C° 1 mm 8 mps 737 mmHg 87%
    20:00 +8°C° 0.3 mm 7 mps 736 mmHg 87%
    21:00 +8°C° 0.3 mm 6 mps 736 mmHg 87%
    22:00 +8°C° 0.3 mm 5 mps 736 mmHg 87%
    23:00 +8°C° 0.1 mm 5 mps 736 mmHg 88%

    Tomorrow, 14 October, Monday

    Time Temperature Precipitation Wind Pressure Humidity
    00:00 +7°C° 0.1 mm 5 mps 736 mmHg 88%
    01:00 +7°C° 0.1 mm 4 mps 735 mmHg 89%
    02:00 +7°C° 0 mm 5 mps 736 mmHg 87%
    03:00 +7°C° 0 mm 5 mps 736 mmHg 84%
    04:00 +6°C° 0 mm 5 mps 736 mmHg 82%
    05:00 +6°C° 0 mm 5 mps 736 mmHg 84%
    06:00 +6°C° 0 mm 5 mps 736 mmHg 86%
    07:00 +5°C° 0 mm 5 mps 736 mmHg 89%
    08:00 +5°C° 0 mm 6 mps 736 mmHg 85%
    09:00 +5°C° 0 mm 6 mps 737 mmHg 81%
    10:00 +6°C° 0 mm 7 mps 737 mmHg 77%
    11:00 +6°C° 0 mm 7 mps 738 mmHg 75%
    12:00 +6°C° 0 mm 7 mps 738 mmHg 74%
    13:00 +8°C° 0 mm 7 mps 738 mmHg 72%
    14:00 +8°C° 0.1 mm 7 mps 739 mmHg 71%
    15:00 +8°C° 0.1 mm 7 mps 739 mmHg 70%
    16:00 +8°C° 0.1 mm 7 mps 740 mmHg 69%
    17:00 +7°C° 0 mm 6 mps 740 mmHg 72%
    18:00 +7°C° 0 mm 6 mps 740 mmHg 75%
    19:00 +7°C° 0 mm 5 mps 741 mmHg 78%
    20:00 +6°C° 0.2 mm 5 mps 741 mmHg 80%
    21:00 +5°C° 0.2 mm 6 mps 741 mmHg 83%
    22:00 +5°C° 0.2 mm 6 mps 741 mmHg 85%
    23:00 +6°C° 0 mm 5 mps 741 mmHg 86%

    Day after tomorrow, 15 October, Tuesday

    Time Temperature Precipitation Wind Pressure Humidity
    00:00 +5°C° 0 mm 5 mps 741 mmHg 86%
    01:00 +5°C° 0 mm 5 mps 741 mmHg 87%
    02:00 +5°C° 0 mm 4 mps 741 mmHg 88%
    03:00 +5°C° 0 mm 4 mps 741 mmHg 90%
    04:00 +4°C° 0 mm 4 mps 741 mmHg 91%
    05:00 +4°C° 0.2 mm 4 mps 741 mmHg 91%
    06:00 +5°C° 0.2 mm 4 mps 740 mmHg 91%
    07:00 +5°C° 0.2 mm 4 mps 740 mmHg 91%
    08:00 +5°C° 1.8 mm 5 mps 738 mmHg 91%
    09:00 +5°C° 1.8 mm 7 mps 737 mmHg 91%
    10:00 +5°C° 1.8 mm 9 mps 736 mmHg 91%
    11:00 +6°C° 1.4 mm 9 mps 735 mmHg 90%
    12:00 +8°C° 1.4 mm 9 mps 734 mmHg 90%
    13:00 +10°C° 1.4 mm 9 mps 733 mmHg 89%
    14:00 +10°C° 0.1 mm 8 mps 733 mmHg 87%
    15:00 +11°C° 0.1 mm 8 mps 733 mmHg 85%
    16:00 +11°C° 0.1 mm 8 mps 733 mmHg 83%
    17:00 +10°C° 0.4 mm 7 mps 733 mmHg 83%
    18:00 +10°C° 0.4 mm 7 mps 734 mmHg 83%
    19:00 +9°C° 0.4 mm 6 mps 734 mmHg 84%
    20:00 +8°C° 0.1 mm 6 mps 735 mmHg 83%
    21:00 +7°C° 0.1 mm 6 mps 736 mmHg 83%
    22:00 +5°C° 0.1 mm 6 mps 737 mmHg 82%
    23:00 +4°C° 0 mm 6 mps 737 mmHg 82%

    16 October, Wednesday

    Time Temperature Precipitation Wind Pressure Humidity
    00:00 +4°C° 0 mm 6 mps 738 mmHg 82%
    01:00 +3°C° 0 mm 6 mps 739 mmHg 81%
    02:00 +3°C° 0 mm 6 mps 740 mmHg 81%
    03:00 +3°C° 0 mm 6 mps 741 mmHg 81%
    04:00 +3°C° 0 mm 6 mps 741 mmHg 80%
    05:00 +2°C° 0 mm 5 mps 742 mmHg 81%
    06:00 +2°C° 0 mm 5 mps 742 mmHg 83%
    07:00 +1°C° 0 mm 5 mps 743 mmHg 84%
    08:00 +2°C° 0 mm 6 mps 743 mmHg 79%
    09:00 +2°C° 0 mm 6 mps 744 mmHg 75%
    10:00 +3°C° 0 mm 6 mps 744 mmHg 71%
    11:00 +3°C° 0 mm 6 mps 744 mmHg 68%
    12:00 +3°C° 0 mm 6 mps 745 mmHg 66%
    13:00 +3°C° 0 mm 6 mps 745 mmHg 63%
    14:00 +3°C° 0 mm 6 mps 746 mmHg 64%
    15:00 +2°C° 0 mm 6 mps 746 mmHg 66%
    16:00 +2°C° 0 mm 6 mps 746 mmHg 68%
    17:00 +1°C° 0 mm 6 mps 747 mmHg 68%
    18:00 +1°C° 0 mm 5 mps 747 mmHg 68%
    19:00 +1°C° 0 mm 5 mps 748 mmHg 69%
    20:00 +1°C° 0 mm 4 mps 748 mmHg 69%
    21:00 +1°C° 0 mm 4 mps 748 mmHg 69%
    22:00 +1°C° 0 mm 4 mps 749 mmHg 69%
    23:00 +1°C° 0 mm 3 mps 749 mmHg 73%

    17 October, Thursday

    Time Temperature Precipitation Wind Pressure Humidity
    00:00 0°C° 0 mm 3 mps 749 mmHg 77%
    01:00 +1°C° 0 mm 2 mps 749 mmHg 81%
    02:00 -1°C° 0 mm 2 mps 749 mmHg 82%
    03:00 -1°C° 0 mm 2 mps 750 mmHg 83%
    04:00 -1°C° 0 mm 2 mps 750 mmHg 84%
    05:00 -1°C° 0 mm 2 mps 750 mmHg 83%
    06:00 -1°C° 0 mm 2 mps 750 mmHg 83%
    07:00 +1°C° 0 mm 1 mps 750 mmHg 82%
    08:00 +1°C° 0 mm 2 mps 750 mmHg 78%
    09:00 +2°C° 0 mm 2 mps 750 mmHg 74%
    10:00 +3°C° 0 mm 2 mps 750 mmHg 69%
    11:00 +2°C° 0 mm 3 mps 750 mmHg 68%
    12:00 +3°C° 0 mm 3 mps 750 mmHg 67%
    13:00 +3°C° 0 mm 4 mps 749 mmHg 66%
    14:00 +3°C° 0.3 mm 3 mps 749 mmHg 72%
    15:00 +3°C° 0.3 mm 3 mps 749 mmHg 78%
    16:00 +2°C° 0.3 mm 3 mps 748 mmHg 84%
    17:00 +2°C° 0 mm 3 mps 748 mmHg 83%
    18:00 +2°C° 0 mm 3 mps 747 mmHg 82%
    19:00 +2°C° 0 mm 3 mps 747 mmHg 80%
    20:00 +1°C° 0 mm 4 mps 746 mmHg 79%
    21:00 +1°C° 0 mm 4 mps 746 mmHg 78%
    22:00 +2°C° 0 mm 5 mps 745 mmHg 77%
    23:00 +2°C° 0 mm 5 mps 745 mmHg 75%

    18 October, Friday

    Time Temperature Precipitation Wind Pressure Humidity
    00:00 +2°C° 0 mm 6 mps 744 mmHg 73%
    01:00 +2°C° 0 mm 6 mps 743 mmHg 71%
    02:00 +3°C° 0 mm 6 mps 743 mmHg 70%
    03:00 +3°C° 0 mm 7 mps 742 mmHg 69%
    04:00 +3°C° 0 mm 7 mps 741 mmHg 68%
    05:00 +3°C° 0.4 mm 7 mps 741 mmHg 71%
    06:00 +3°C° 0.4 mm 7 mps 740 mmHg 74%
    07:00 +3°C° 0.4 mm 6 mps 740 mmHg 77%
    08:00 +3°C° 0.3 mm 6 mps 740 mmHg 79%
    09:00 +3°C° 0.3 mm 6 mps 739 mmHg 81%
    10:00 +3°C° 0.3 mm 6 mps 739 mmHg 83%
    11:00 +4°C° 0.4 mm 6 mps 739 mmHg 84%
    12:00 +4°C° 0.4 mm 6 mps 739 mmHg 85%
    13:00 +5°C° 0.4 mm 5 mps 739 mmHg 85%
    14:00 +5°C° 0 mm 5 mps 738 mmHg 87%
    15:00 +6°C° 0 mm 4 mps 738 mmHg 88%
    16:00 +6°C° 0 mm 4 mps 738 mmHg 89%
    17:00 +5°C° 1.1 mm 4 mps 738 mmHg 91%
    18:00 +5°C° 1.1 mm 4 mps 737 mmHg 92%
    19:00 +3°C° 1.1 mm 5 mps 737 mmHg 94%
    20:00 +2°C° 0.7 mm 5 mps 737 mmHg 94%
    21:00 +2°C° 0.7 mm 6 mps 738 mmHg 94%
    22:00 +1°C° 0.7 mm 6 mps 738 mmHg 94%
    23:00 -1°C° 0.2 mm 7 mps 738 mmHg 94%
    Show more